Tracking 25964 objects as of 11-Aug-2022
HD Live streaming from Space Station
objects crossing your sky now

STARLINK-2159

Track STARLINK-2159 now!
10-day predictions
STARLINK-2159 is classified as:


NORAD ID: 47745
Int'l Code: 2021-017Z
Perigee: 553.3 km
Apogee: 555.5 km
Inclination: 53.1 °
Period: 95.6 minutes
Semi major axis: 6925 km
RCS: Unknown
Launch date: March 4, 2021
Source: United States (US)
Launch site: AIR FORCE EASTERN TEST RANGE (AFETR)
aabbcc
Your satellite tracking list
Your tracking list is empty




NASA's NSSDC Master Catalog

Two Line Element Set (TLE):
1 47745U 21017Z   22222.64461809 -.00002535  00000-0 -15141-3 0  9998
2 47745  53.0557 319.1598 0001565 121.8390 238.2751 15.06381735 80725
Source of the keplerian elements: AFSPC